Regional Weather Roundup
Issued by NWS

Home | Current Version | Previous Version | Text Only | Print | Product List | Glossary Off
Versions: 1 2 3 4 5 6 7 8 9 10 11 12 13 14 15 16 17 18 19 20 21 22 23 24 25 26 27 28 29 30 31 32 33 34 35 36 37 38 39 40 41 42 43 44 45 46 47 48 49 50

000
ASUS43 KIND 240459
RWRIN

WEATHER ROUNDUP FOR INDIANA
NATIONAL WEATHER SERVICE INDIANAPOLIS IN
100 AM EDT SAT JUN 24 2017

NOTE: "FAIR" INDICATES FEW OR NO CLOUDS BELOW 12,000 FEET WITH NO
SIGNIFICANT WEATHER AND/OR OBSTRUCTIONS TO VISIBILITY.

* - STATION DOES NOT REPORT WEATHER SUCH AS PRECIPITATION OR FOG.

+ - STATION NOT QUALITY CONTROLLED BY THE NATIONAL WEATHER SERVICE.
    USE DATA WITH CAUTION...ESPECIALLY DEWPOINT AND RELATIVE
    HUMIDITY OBSERVATIONS.

INZ001>003-010>013-019-020-240600-
NORTHWEST INDIANA

CITY           SKY/WX    TMP DP  RH WIND       PRES   REMARKS
GARY /AIRPORT/ PTCLDY    71  50  47 NW12G24   29.85R
KNOX *+        MOCLDY    64  50  59 W5        29.83R
MICHIGAN CITY+ MOCLDY    68  57  68 NW7       29.84R
MONTICELLO +   CLOUDY    67  58  73 W8        29.86R

$$

LMZ046-743>745-240600-
SOUTHERN LAKE MICHIGAN

STATION/POSITION TIME  TEMP    WIND        PRES    WAVE
                       AIR SEA DIR/SP/G            HT
                 (UTC) (F)     (DEG/KT/KT) (MB)    (FT)
BURNS HARBOR     0440   69     310/ 11/ 13 1010.8R
MICHIGAN CITY    0430   69     290/ 17/ 19   N/A
5NW MICH CITY    0450   69 68  300/ 14/ 17   N/A     2

$$

INZ004-005-014>016-021>024-240600-
NORTH CENTRAL INDIANA

CITY           SKY/WX    TMP DP  RH WIND       PRES   REMARKS
GOSHEN         MOCLDY    66  54  65 W7        29.81R
SOUTH BEND     MOCLDY    68  56  65 NW9       29.83R

$$

INZ006>009-017-018-025>027-240600-
NORTHEAST INDIANA

CITY           SKY/WX    TMP DP  RH WIND       PRES   REMARKS
FORT WAYNE     PTCLDY    61  56  83 SW3       29.82R
KENDALLVILLE + PTCLDY   N/A N/A N/A SW6       29.81R

$$

INZ028-029-035-036-043>045-051>053-240600-
WEST CENTRAL INDIANA

CITY           SKY/WX    TMP DP  RH WIND       PRES   REMARKS
CRAWFORDSVL +  PTCLDY    63  60  90 W6        29.90R
GREENCASTLE +  PTCLDY    64  59  82 W5        29.91R
LAFAYETTE      CLOUDY    66  59  78 W8        29.87R
TERRE HAUTE    PTCLDY    68  60  75 NW6       29.91R

$$

INZ030>032-037>040-046>048-054>057-064-065-240600-
CENTRAL INDIANA

CITY           SKY/WX    TMP DP  RH WIND       PRES   REMARKS
GREENWOOD *+   PTCLDY   N/A N/A N/A SW5       29.89R
INDIANAPOLIS   PTCLDY    63  61  93 SW7       29.87R
-EAGLE CREEK   MOCLDY    65  61  87 SW5       29.87R
KOKOMO +       PTCLDY    64  58  80 SW8       29.87
MT COMFORT *+  PTCLDY    64  61  88 SW6       29.88R
SHELBYVILLE    PTCLDY    64  59  83 SW6       29.87R

$$

INZ033-034-041-042-049-050-058-059-240600-
EAST CENTRAL INDIANA

CITY           SKY/WX    TMP DP  RH WIND       PRES   REMARKS
MUNCIE         CLEAR     65  59  81 SW6       29.85R
RICHMOND +     CLEAR     61  61 100 SW6       29.88R

$$

INZ060-061-067>069-081>083-085>088-240600-
SOUTHWEST INDIANA

CITY           SKY/WX    TMP DP  RH WIND       PRES   REMARKS
EVANSVILLE     MOCLDY    68  66  93 W3        29.91S
HUNTINGBURG *+ PTCLDY    66  65  96 CALM      29.91S

$$

INZ062-063-066-070>080-084-089>092-240600-
SOUTH CENTRAL AND SOUTHEAST INDIANA

CITY           SKY/WX    TMP DP  RH WIND       PRES   REMARKS
BLOOMINGTON    PTCLDY    63  60  90 CALM      29.90R
MADISON *+       N/A     66  64  94 CALM      29.91S VSB 1/2
SEYMOUR +      PTCLDY    66  66 100 CALM      29.89R FOG

$$





USA.gov is the U.S. government's official web portal to all federal, state and local government web resources and services.